Home   Weather   Talcahuano   Past weeks

Flag for Chile Past Weather in Talcahuano, Chile — Yesterday and Last 2 Weeks

Now
59 °F

Passing clouds.


Feels Like: 60 °F
Forecast: 54 / 66 °F
Wind: 3 mph from Southwest

Location: Concepcion Airport

Current Time: Apr 27, 2017 at 9:39:05 pm

Latest Report: Apr 27, 2017 at 9:00 pm


Visibility: N/A

Pressure: 30.12 "Hg

Humidity: 88%

Dew Point: 55 °F

Location of TalcahuanoLocation

Past Weather in Talcahuano — Graph

°F

Talcahuano Temperature Yesterday

Maximum temperature yesterday: 64 °F (at 3:00 pm)
Minimum temperature yesterday: 41 °F (at 6:00 am)
Average temperature yesterday: 52 °F

High & Low Weather Summary for the Past Weeks

 TemperatureHumidityPressure
High68 °F (Apr 14, 4:00 pm)100% (Apr 13, 1:00 am)30.30 "Hg (Apr 13, 1:00 am)
Low41 °F (Apr 26, 6:00 am)52% (Apr 22, 4:00 pm)29.89 "Hg (Apr 13, 2:00 am)
Average57 °F86%30.06 "Hg
* Reported Apr 12 8:00 pm — Apr 27 8:00 pm, Talcahuano, Weather by CustomWeather, © 2017

Note: Actual official high and low records may vary slightly from our data, if they occured in-between our weather recording intervals... More about our weather records

Advertising

Talcahuano Weather History for the Previous 24 Hours

Scroll right to see more
 ConditionsComfort  
Time TempWeatherWind HumidityBarometerVisibility
8:00 pm
Thu, Apr 27
61 °FPassing clouds.1 mph88%30.12 "HgN/A
7:00 pm61 °FBroken clouds.5 mph88%30.12 "HgN/A
6:25 pm63 °FPartly sunny.6 mph83%30.12 "HgN/A
6:00 pm63 °FSunny.8 mph83%30.12 "Hg10 mi
5:00 pm64 °FSunny.10 mph73%30.12 "Hg10 mi
4:00 pm66 °FPassing clouds.12 mph68%30.12 "HgN/A
3:00 pm66 °FPassing clouds.12 mph68%30.12 "HgN/A
2:00 pm66 °FPassing clouds.13 mph68%30.12 "HgN/A
1:00 pm64 °FPassing clouds.8 mph73%30.15 "HgN/A
12:00 pm63 °FPassing clouds.7 mph73%30.15 "HgN/A
11:00 am57 °FScattered clouds.3 mph88%30.15 "HgN/A
10:00 am52 °FPartly sunny.5 mph88%30.15 "HgN/A
9:00 am48 °FPartly sunny.5 mph94%30.12 "HgN/A
8:00 am46 °FClear.3 mph93%30.12 "Hg10 mi
7:00 am46 °FClear.No wind93%30.12 "Hg10 mi
6:00 am46 °FClear.3 mph100%30.12 "Hg10 mi
5:00 am46 °FClear.3 mph93%30.15 "Hg10 mi
4:00 am48 °FClear.3 mph94%30.15 "Hg10 mi
3:00 am48 °FClear.No wind100%30.15 "Hg10 mi
2:00 am48 °FClear.2 mph94%30.15 "Hg10 mi
1:00 am50 °FClear.No wind100%30.18 "Hg10 mi
12:00 am50 °FClear.2 mph94%30.18 "Hg10 mi
11:00 pm
Wed, Apr 26
54 °FClear.2 mph94%30.18 "Hg10 mi
10:00 pm54 °FClear.5 mph94%30.18 "Hg10 mi
9:00 pm55 °FPassing clouds.6 mph94%30.18 "HgN/A
Weather by CustomWeather, © 2017

See weather overviewHow to use our weather pages